Location: Middle Street
(51.7167°N, 0.0333°E)
Time: 19:48:10
(UTC+00:00)

CZ-2D R/B - Pass Details

Date: 20 January 2021
Orbit: 520 x 538 km, 97.4° (Epoch: 27 February)

Event Time Altitude Azimuth Distance (km) Brightness Sun altitude
Rises 18:26:10 0° 178° (S) 2,674 6.9 -17.8°
Reaches altitude 10° 18:28:19 10° 183° (S) 1,786 6.1 -18.2°
Maximum altitude 18:32:05 51° 260° (W) 680 4.1 -18.7°
Drops below altitude 10° 18:35:52 10° 337° (NNW) 1,792 6.1 -19.3°
Sets 18:38:02 0° 343° (NNW) 2,684 7.0 -19.6°
